DAL155 EHWO-LEZL

Flight info

Callsign DAL155
Flight time N/A
Altitude 37000
Route CIV DCT DIBES DCT DIDRU DCT CEGAM DCT BASIM DCT DOPEN DCT SOTUK DCT KOPOM DCT MILS2
Aircraft B77W/H-SDE1E2E3FGHIJ2J3J4J5M1RWXY/LB1D1

Departure

Time 2026-04-21 10:37
Airport Woensdrecht Air Base (EHWO)

Arrival

Time N/A
Airport Seville Airport (LEZL)
Time Latitude Longitude Altitude Speed Heading
2026-04-21 10:25 51.44262 4.32747 51 ft 0 kts 45°
2026-04-21 10:32 51.44263 4.32748 51 ft 1 kts 45°
2026-04-21 10:32 51.44269 4.32753 50 ft 1 kts 23°
2026-04-21 10:33 51.44276 4.32751 46 ft 1 kts 352°
2026-04-21 10:33 51.44284 4.32740 51 ft 3 kts 320°
2026-04-21 10:33 51.44311 4.32709 51 ft 8 kts 328°
2026-04-21 10:33 51.44380 4.32659 48 ft 12 kts 337°
2026-04-21 10:34 51.44262 4.32747 51 ft 0 kts 45°
2026-04-21 10:34 51.44271 4.32750 50 ft 2 kts
2026-04-21 10:34 51.44315 4.32708 47 ft 15 kts 333°
2026-04-21 10:35 51.44363 4.32683 51 ft 0 kts 343°
2026-04-21 10:35 51.44462 4.32629 52 ft 0 kts 341°
2026-04-21 10:35 51.44494 4.32615 53 ft 7 kts 352°
2026-04-21 10:36 51.44534 4.32669 49 ft 13 kts 60°
2026-04-21 10:36 51.44619 4.33030 51 ft 68 kts 70°
2026-04-21 10:36 51.44876 4.34133 54 ft 141 kts 69°
2026-04-21 10:36 51.45297 4.35903 143 ft 191 kts 69°
2026-04-21 10:37 51.45783 4.37989 537 ft 210 kts 68°
2026-04-21 10:37 51.46592 4.39919 1152 ft 212 kts 43°
2026-04-21 10:37 51.47547 4.41747 1808 ft 219 kts 69°
2026-04-21 10:37 51.47711 4.44238 2045 ft 235 kts 98°
2026-04-21 10:38 51.47402 4.46865 2483 ft 243 kts 98°
2026-04-21 10:38 51.47173 4.49535 3111 ft 241 kts 85°
2026-04-21 10:38 51.47654 4.52046 3650 ft 242 kts 56°
2026-04-21 10:38 51.48901 4.53858 4207 ft 249 kts 28°
2026-04-21 10:39 51.50637 4.54588 4410 ft 271 kts
2026-04-21 10:39 51.52593 4.54651 4646 ft 290 kts
2026-04-21 10:39 51.54645 4.54643 5168 ft 300 kts
2026-04-21 10:39 51.56723 4.54604 6280 ft 300 kts 359°
2026-04-21 10:40 51.58811 4.53824 7459 ft 319 kts 337°
2026-04-21 10:40 51.60608 4.51712 8808 ft 318 kts 314°
2026-04-21 10:40 51.61727 4.48784 10000 ft 308 kts 290°
2026-04-21 10:40 51.62091 4.45440 10892 ft 304 kts 268°
2026-04-21 10:41 51.61677 4.42068 11270 ft 317 kts 246°
2026-04-21 10:41 51.60449 4.39048 11430 ft 333 kts 223°
2026-04-21 10:41 51.58560 4.36750 11604 ft 348 kts 205°
2026-04-21 10:41 51.56286 4.35150 11771 ft 366 kts 197°
2026-04-21 10:42 51.53825 4.33826 12127 ft 379 kts 195°
2026-04-21 10:42 51.51272 4.32562 12682 ft 388 kts 194°
2026-04-21 10:42 51.48680 4.31284 13338 ft 392 kts 195°
2026-04-21 10:42 51.46066 4.29970 14069 ft 395 kts 195°
2026-04-21 10:43 51.43467 4.28633 14758 ft 399 kts 196°
2026-04-21 10:43 51.40814 4.27242 15387 ft 404 kts 196°
2026-04-21 10:43 51.38133 4.25820 16025 ft 408 kts 197°
2026-04-21 10:43 51.35427 4.24377 16653 ft 412 kts 197°
2026-04-21 10:44 51.32698 4.22917 17266 ft 416 kts 197°
2026-04-21 10:44 51.29944 4.21444 17873 ft 420 kts 197°
2026-04-21 10:44 51.27160 4.19956 18472 ft 423 kts 197°
2026-04-21 10:44 51.24357 4.18458 19066 ft 426 kts 197°
2026-04-21 10:45 51.21567 4.16971 19644 ft 429 kts 197°
2026-04-21 10:45 51.18723 4.15459 20202 ft 433 kts 197°
2026-04-21 10:45 51.15852 4.13935 20739 ft 436 kts 197°
2026-04-21 10:45 51.12963 4.12404 21295 ft 439 kts 197°
2026-04-21 10:46 51.10057 4.10863 21814 ft 442 kts 197°
2026-04-21 10:46 51.07130 4.09310 22310 ft 445 kts 197°
2026-04-21 10:46 51.04180 4.07750 22791 ft 449 kts 197°
2026-04-21 10:46 51.01212 4.06185 23291 ft 451 kts 197°
2026-04-21 10:47 50.98229 4.04613 23792 ft 453 kts 197°
2026-04-21 10:47 50.95226 4.03033 24253 ft 456 kts 197°
2026-04-21 10:47 50.92247 4.01467 24664 ft 459 kts 198°
2026-04-21 10:47 50.89270 3.99904 25059 ft 462 kts 198°
2026-04-21 10:48 50.86212 3.98303 25474 ft 465 kts 198°
2026-04-21 10:48 50.83134 3.96690 25871 ft 467 kts 199°
2026-04-21 10:48 50.80035 3.95069 26235 ft 471 kts 199°
2026-04-21 10:48 50.76917 3.93440 26608 ft 474 kts 199°
2026-04-21 10:49 50.73774 3.91801 26933 ft 477 kts 200°
2026-04-21 10:49 50.70617 3.90155 27293 ft 479 kts 200°
2026-04-21 10:49 50.67438 3.88502 27628 ft 482 kts 200°
2026-04-21 10:49 50.64248 3.86850 27953 ft 484 kts 201°
2026-04-21 10:50 50.61079 3.85208 28244 ft 487 kts 201°
2026-04-21 10:50 50.57909 3.83324 28538 ft 487 kts 207°
2026-04-21 10:50 50.54860 3.81017 28826 ft 486 kts 213°
2026-04-21 10:50 50.51961 3.78280 29110 ft 486 kts 216°
2026-04-21 10:51 50.49081 3.75476 29360 ft 488 kts 216°
2026-04-21 10:51 50.46182 3.72671 29603 ft 491 kts 216°
2026-04-21 10:51 50.43271 3.69869 29889 ft 491 kts 216°
2026-04-21 10:51 50.40355 3.67085 30286 ft 490 kts 216°
2026-04-21 10:52 50.37490 3.64359 30701 ft 487 kts 216°
2026-04-21 10:52 50.34582 3.61616 31030 ft 487 kts 216°
2026-04-21 10:52 50.31672 3.58902 31268 ft 488 kts 216°
2026-04-21 10:52 50.28764 3.56162 31522 ft 488 kts 216°
2026-04-21 10:53 50.25861 3.53417 31784 ft 487 kts 216°
2026-04-21 10:53 50.22960 3.50675 32024 ft 487 kts 216°
2026-04-21 10:53 50.20064 3.47931 32280 ft 487 kts 216°
2026-04-21 10:53 50.17168 3.45196 32592 ft 486 kts 216°
2026-04-21 10:54 50.14277 3.42478 32863 ft 485 kts 216°
2026-04-21 10:54 50.11420 3.39800 33097 ft 485 kts 216°
2026-04-21 10:54 50.08527 3.37097 33342 ft 485 kts 216°
2026-04-21 10:54 50.05634 3.34400 33561 ft 485 kts 216°
2026-04-21 10:55 50.02736 3.31701 33738 ft 486 kts 216°
2026-04-21 10:55 49.99843 3.29011 33967 ft 486 kts 216°
2026-04-21 10:55 49.96944 3.26317 34216 ft 485 kts 216°
2026-04-21 10:55 49.94054 3.23637 34528 ft 482 kts 216°
2026-04-21 10:56 49.91182 3.20980 34751 ft 481 kts 216°
2026-04-21 10:56 49.88303 3.18314 34892 ft 482 kts 216°
2026-04-21 10:56 49.85422 3.15648 35068 ft 482 kts 216°
2026-04-21 10:56 49.82584 3.13031 35286 ft 481 kts 216°
2026-04-21 10:57 49.79705 3.10377 35433 ft 482 kts 216°
2026-04-21 10:57 49.76827 3.07728 35577 ft 482 kts 216°
2026-04-21 10:57 49.73946 3.05083 35741 ft 482 kts 216°
2026-04-21 10:57 49.71067 3.02438 35904 ft 481 kts 216°
2026-04-21 10:58 49.68246 2.99852 36061 ft 480 kts 216°
2026-04-21 10:58 49.62492 2.94588 36198 ft 482 kts 216°
2026-04-21 10:59 49.56774 2.89373 36220 ft 479 kts 216°
2026-04-21 10:59 49.51054 2.84175 36227 ft 476 kts 216°
2026-04-21 11:00 49.45354 2.79003 36222 ft 475 kts 216°
2026-04-21 11:00 49.39660 2.73848 36222 ft 475 kts 216°
2026-04-21 11:01 49.33960 2.68703 36208 ft 475 kts 216°
2026-04-21 11:01 49.28299 2.63609 36216 ft 475 kts 216°
2026-04-21 11:02 49.19734 2.55931 36205 ft 476 kts 216°
2026-04-21 11:02 49.14016 2.50819 36198 ft 476 kts 216°
2026-04-21 11:03 49.08288 2.45715 36198 ft 477 kts 216°
2026-04-21 11:03 49.02600 2.40658 36188 ft 477 kts 216°
2026-04-21 11:04 48.96878 2.35587 36196 ft 476 kts 216°
2026-04-21 11:04 48.91152 2.30523 36192 ft 475 kts 216°
2026-04-21 11:05 48.85437 2.25482 36197 ft 475 kts 216°
2026-04-21 11:05 48.79732 2.20470 36184 ft 473 kts 216°
2026-04-21 11:06 48.74072 2.15509 36187 ft 472 kts 216°
2026-04-21 11:06 48.68394 2.10540 36195 ft 471 kts 216°
2026-04-21 11:07 48.62726 2.05594 36191 ft 470 kts 216°
2026-04-21 11:07 48.57070 2.00676 36185 ft 468 kts 216°
2026-04-21 11:08 48.51491 1.95833 36185 ft 467 kts 216°
2026-04-21 11:08 48.45860 1.90956 36180 ft 466 kts 216°
2026-04-21 11:09 48.40274 1.86132 36173 ft 466 kts 216°
2026-04-21 11:09 48.34654 1.81289 36164 ft 465 kts 216°
2026-04-21 11:10 48.29039 1.76466 36156 ft 465 kts 216°
2026-04-21 11:10 48.23414 1.71647 36156 ft 465 kts 216°
2026-04-21 11:11 48.17832 1.66875 36137 ft 465 kts 216°
2026-04-21 11:11 48.12207 1.62079 36149 ft 465 kts 215°
2026-04-21 11:12 48.06571 1.57288 36138 ft 466 kts 215°
2026-04-21 11:12 48.00974 1.52540 36130 ft 466 kts 215°
2026-04-21 11:13 47.95342 1.47772 36130 ft 466 kts 215°
2026-04-21 11:13 47.89696 1.43008 36145 ft 466 kts 215°
2026-04-21 11:14 47.84074 1.38277 36124 ft 466 kts 215°
2026-04-21 11:14 47.78437 1.33543 36127 ft 466 kts 215°
2026-04-21 11:15 47.72781 1.28805 36126 ft 466 kts 215°
2026-04-21 11:15 47.67170 1.24118 36124 ft 465 kts 215°
2026-04-21 11:16 47.61525 1.19413 36117 ft 465 kts 215°
2026-04-21 11:16 47.55873 1.14709 36112 ft 465 kts 215°
2026-04-21 11:17 47.50252 1.10048 36117 ft 465 kts 214°
2026-04-21 11:17 47.44611 1.05365 36116 ft 465 kts 214°
2026-04-21 11:18 47.38975 1.00682 36108 ft 465 kts 214°
2026-04-21 11:18 47.33522 0.96164 36106 ft 465 kts 214°
2026-04-21 11:19 47.27881 0.91507 36108 ft 464 kts 214°
2026-04-21 11:19 47.22249 0.86863 36109 ft 464 kts 214°
2026-04-21 11:20 47.16615 0.82230 36104 ft 464 kts 214°
2026-04-21 11:20 47.11020 0.77646 36097 ft 463 kts 214°
2026-04-21 11:21 47.05387 0.73039 36099 ft 463 kts 214°
2026-04-21 11:21 46.99764 0.68447 36095 ft 464 kts 214°
2026-04-21 11:22 46.95092 0.64642 36088 ft 464 kts 214°
2026-04-21 11:22 46.88534 0.59313 36086 ft 464 kts 214°
2026-04-21 11:23 46.82896 0.54745 36083 ft 464 kts 214°
2026-04-21 11:23 46.77244 0.50179 36070 ft 464 kts 214°
2026-04-21 11:24 46.72545 0.46386 36068 ft 464 kts 214°
2026-04-21 11:24 46.66902 0.41846 36065 ft 464 kts 214°
2026-04-21 11:25 46.60340 0.36581 36053 ft 463 kts 214°